Regional Weather Roundup
Issued by NWS Boston, MA

Home | Current Version | Previous Version | Text Only | Print | Product List | Glossary On
Versions: 1 2 3 4 5 6 7 8 9 10 11 12 13 14 15 16 17 18 19 20 21 22 23 24 25 26 27 28 29 30 31 32 33 34 35 36 37 38 39 40 41 42 43 44 45 46 47
000
ASUS41 KBOX 010010
RWRBOX

REGIONAL WEATHER ROUNDUP
NATIONAL WEATHER SERVICE TAUNTON MA
800 PM EDT MON AUG 31 2015

NOTE:  "FAIR" INDICATES FEW OR NO CLOUDS BELOW 12,000 FEET WITH NO
SIGNIFICANT WEATHER AND/OR OBSTRUCTIONS TO VISIBILITY.  THE FOLLOWING
OBSERVATION LOCATIONS DO NOT REPORT PRESENT WEATHER...PROVINCETOWN...
SMITHFIELD...BLOCK ISLAND...KEENE...AND OXFORD.

MAZALL-010100-
EASTERN MASSACHUSETTS

CITY           SKY/WX    TMP DP  RH WIND       PRES   REMARKS
BOSTON         PTCLDY    84  61  45 W12       29.90R
6HR MIN TEMP:  84; 6HR MAX TEMP:  90;

BEVERLY        CLEAR     79  61  53 W7        29.88R
LAWRENCE       CLEAR     81  63  54 W7        29.91R
BEDFORD        CLEAR     79  60  52 W6        29.90R
BLUE HILL        N/A     78  62  57 W14       29.92R
NORWOOD        CLEAR     79  64  60 W6        29.90R
MARSHFIELD     CLEAR     81  66  61 CALM      29.91R
PLYMOUTH       CLEAR     78  68  71 W6        29.91R
TAUNTON        CLEAR     73  68  84 W3        29.90R
NEW BEDFORD    CLEAR     77  69  76 SW6       29.91R
$$

MAZALL-010100-
CAPE COD AND THE ISLANDS

CITY           SKY/WX    TMP DP  RH WIND       PRES   REMARKS
FALMOUTH       CLEAR     75  70  83 W8        29.92R
HYANNIS        PTCLDY    77  69  76 SW9       29.90R
CHATHAM        PTCLDY    75  71  87 VRB5      29.91R
PROVINCETOWN     N/A     75  64  69 W9        29.89S
NANTUCKET      PTCLDY    73  69  87 W13       29.93R
MARTHAS VNYRD  PTCLDY    77  67  71 SW8       29.92S
$$

MAZALL-010100-
CENTRAL AND WESTERN MASSACHUSETTS

CITY           SKY/WX    TMP DP  RH WIND       PRES   REMARKS
WORCESTER      CLEAR     75  63  66 W9        29.97R
6HR MIN TEMP:  75; 6HR MAX TEMP:  83;

FITCHBURG      CLEAR     80  62  54 W6        29.93R
ORANGE         CLEAR     77  62  59 W5        29.95R
SPRINGFIELD    CLEAR     79  65  62 NW5       29.93R
WESTFIELD      CLEAR     80  66  62 CALM      29.95R
NORTH ADAMS    CLEAR     75  62  64 W8        29.97R
PITTSFIELD     CLEAR     72  62  71 W6        29.99R
$$

RIZALL-010100-
RHODE ISLAND

CITY           SKY/WX    TMP DP  RH WIND       PRES   REMARKS
PROVIDENCE     PTCLDY    80  67  64 SW7       29.92R
6HR MIN TEMP:  80; 6HR MAX TEMP:  87;

NEWPORT        CLEAR     78  68  71 VRB3      29.93R
BLOCK ISLAND   PTCLDY    73  70  88 SW17      29.95R
SMITHFIELD     CLEAR     70  64  83 CALM      29.94R
WESTERLY       CLEAR     80  69  69 SW7       29.94R
$$

CTZALL-010100-
CONNECTICUT

CITY           SKY/WX    TMP DP  RH WIND       PRES   REMARKS
BRADLEY INTL   PTCLDY    77  68  73 NW6       29.93R
6HR MIN TEMP:  77; 6HR MAX TEMP:  90;

HARTFORD       PTCLDY    85  66  53 W3        29.93R
BRIDGEPORT     CLEAR     85  66  53 W3        29.94R
DANBURY        CLEAR     76  66  71 SW3       29.98R
GROTON         PTCLDY    80  71  74 SW12      29.93R
NEW HAVEN      MOCLDY    78  68  71 S6        29.94R
CHESTER        NOT AVBL
MERIDEN        CLEAR     79  68  69 CALM      29.94R
WILLIMANTIC    CLEAR     78  68  71 CALM      29.94R
OXFORD         PTCLDY    81  64  57 CALM      29.99R
$$

MEZ002-015-021-024-NHZ003-005-008-011-012-014-VTZ005-008-010100-
NORTHERN NEW ENGLAND

CITY           SKY/WX    TMP DP  RH WIND       PRES   REMARKS
PORTLAND ME    MOCLDY    78  64  61 W5        29.86R
6HR MIN TEMP:  77; 6HR MAX TEMP:  86;

BANGOR ME      PTCLDY    73  59  61 W6        29.83R
CONCORD NH     MOCLDY    78  61  55 W3        29.91R
MANCHESTER NH  PTCLDY    81  63  54 W6        29.89R
NASHUA NH      PTCLDY    80  65  59 W3        29.91R
PORTSMOUTH NH  PTCLDY    79  64  58 W6        29.87R
JAFFREY NH     CLEAR     76  62  62 VRB3      29.96R
KEENE NH       CLEAR     73  61  64 S6        29.94R
BURLINGTON VT  PTCLDY    74  63  68 N6        29.96R
MT. WASHINGTON FOG       48  48 100 W62G72      N/A  VSB 1/8
$$

NYZ052-076-010100-
EASTERN NEW YORK

CITY           SKY/WX    TMP DP  RH WIND       PRES   REMARKS
ALBANY         PTCLDY    79  62  56 NW9       29.97R
6HR MIN TEMP:  79; 6HR MAX TEMP:  87;

NEW YORK CITY  MOCLDY    88  63  43 W10       29.95R
6HR MIN TEMP:  88; 6HR MAX TEMP:  92;

$$

ANZALL-010100-
MARINE OBSERVATIONS

STATION/POSITION TIME  TEMP    WIND        PRES    VSBY  WAVE
                       AIR SEA DIR/SP/G                  HT/PER
                 (UTC) (F)     (DEG/KT/KT) (MB)    (MI)  (FT/S)
BOSTON BUOY      2350   76 71  280/ 12/ 12 1012.4R         1/ 8
BUZZARDS BAY     2300          240/ 18/ 19 1013.7S
NANTUCKET SOUND  2350   76 74  250/ 16/ 17 1012.5R         2/ 3
MASS BAY-STELLWA 2304   75 70  280/  8/  8   N/A    1 7/8  1/ 8
ISLE OF SHOALS   0000   81     280/ 12/ 12 1011.2R
S OF BLOCK IS    2308      74                N/A           4/ 6
$$

......................KEY.........................
  SKY/WX - SKY CONDITION/PRESENT WEATHER
  TMP    - TEMPERATURE IN FAHRENHEIT
  DWPT   - DEWPOINT IN FAHRENHEIT
  RH     - RELATIVE HUMIDITY IN PERCENT
  WIND   - DIRECTION AND SPEED IN MPH
  PRES   - MEAN SEA LEVEL PRESSURE IN INCHES OF HG
  WCI    - WIND CHILL INDEX
  VSB    - VISIBILITY IN MILES
  HX     - HEAT INDEX
  TC     - TEMPERATURE IN CELSIUS
  VRB    - VARIABLE WIND DIRECTION
  N/A    - NOT AVAILABLE



USA.gov is the U.S. government's official web portal to all federal, state and local government web resources and services.